Weather History for Homestead AFB, FL

Change the Weather History Date:

Sunday, June 17, 2012

  Actual Average Record
Temperature  
Mean Temperature 78 °F -  
Max Temperature 84 °F 88 °F 97 °F (1981)
Min Temperature 73 °F 71 °F 62 °F (1936)
Cooling Degree Days 14    
Growing Degree Days 28 (Base 50)    
Moisture  
Dew Point 67 °F    
Average Humidity 64    
Maximum Humidity 81    
Minimum Humidity 54    
Precipitation  
Precipitation 0.00 in - - ()
Sea Level Pressure  
Sea Level Pressure 29.99 in    
Wind  
Wind Speed 10 mph (ENE)    
Max Wind Speed 20 mph    
Max Gust Speed 23 mph    
Visibility 10 miles    
Events      
Averages and records for this station are not official NWS values.
T = Trace of Precipitation, MM = Missing Value Source: NWS Daily Summary

Daily Weather History Graph

Daily Weather History Graph

Search for Another Location

Airport:

Trip Planner

Search our weather history database for the weather conditions in past years. The results will help you decide how hot, cold, wet, or windy it might be!

Date:

Astronomy

Jun. 17, 2012 Rise Set
Actual Time 6:30 AM EDT 8:14 PM EDT
Civil Twilight 6:04 AM EDT 8:40 PM EDT
Nautical Twilight 5:33 AM EDT 9:11 PM EDT
Astronomical Twilight 5:00 AM EDT 9:44 PM EDT
Moon 4:54 AM EDT (6/17) 6:45 PM EDT (6/17)
Length of Visible Light 14h 35m
Length of Day
13h 43m
Waning Crescent, 4% of the Moon is Illuminated
Jun 17
Waning Crescent
Jun 19
New
Jun 26
First Quarter
Jul 3
Full
Jul 10
Last Quarter

Hourly Weather History & Observations

Time (EDT) Temp. Heat Index Dew Point Humidity Pressure Visibility Wind Dir Wind Speed Gust Speed Precip Events Conditions
12:55 AM 78.1 °F - 66.9 °F 68% 30.00 in 10.0 mi ENE 9.2 mph - N/A   Clear
1:55 AM 77.5 °F - 67.1 °F 70% 29.99 in 10.0 mi ENE 8.1 mph - N/A   Clear
2:55 AM 77.0 °F - 67.5 °F 72% 29.97 in 10.0 mi ENE 6.9 mph - N/A   Clear
3:55 AM 74.7 °F - 67.6 °F 79% 29.96 in 10.0 mi NE 9.2 mph - N/A   Clear
4:55 AM 75.2 °F - 67.8 °F 78% 29.96 in 10.0 mi NE 5.8 mph - N/A   Clear
5:55 AM 74.5 °F - 67.6 °F 79% 29.97 in 10.0 mi NNE 4.6 mph - N/A   Clear
6:55 AM 73.9 °F - 67.6 °F 81% 29.99 in 10.0 mi North 5.8 mph - N/A   Clear
7:55 AM 78.4 °F - 66.6 °F 67% 30.00 in 10.0 mi ENE 8.1 mph - N/A   Clear
8:55 AM 81.5 °F 83.6 °F 66.0 °F 59% 30.01 in 10.0 mi NE 11.5 mph - N/A   Clear
9:55 AM 82.8 °F 85.3 °F 66.9 °F 59% 30.02 in 10.0 mi ENE 11.5 mph - N/A   Clear
10:55 AM 83.5 °F 86.4 °F 67.6 °F 59% 30.04 in 10.0 mi ENE 12.7 mph - N/A   Clear
11:55 AM 84.0 °F 87.3 °F 68.4 °F 59% 30.04 in 10.0 mi ENE 13.8 mph - N/A   Clear
12:55 PM 84.0 °F 87.3 °F 68.4 °F 59% 30.04 in 10.0 mi ENE 17.3 mph 23.0 mph N/A   Clear
1:55 PM 84.0 °F 86.8 °F 67.1 °F 57% 30.01 in 10.0 mi East 19.6 mph - N/A   Mostly Cloudy
2:55 PM 84.4 °F 86.8 °F 66.6 °F 55% 30.00 in 10.0 mi ENE 16.1 mph - N/A   Clear
3:55 PM 84.4 °F 86.6 °F 66.0 °F 54% 29.99 in 10.0 mi East 16.1 mph 20.7 mph N/A   Clear
4:55 PM 84.2 °F 86.3 °F 65.7 °F 54% 29.97 in 10.0 mi ENE 13.8 mph - N/A   Clear
5:55 PM 83.1 °F 85.2 °F 66.0 °F 56% 29.95 in 10.0 mi ENE 12.7 mph - N/A   Clear
6:55 PM 81.7 °F 84.2 °F 67.3 °F 61% 29.94 in 10.0 mi ENE 11.5 mph - N/A   Clear
7:55 PM 80.1 °F 82.2 °F 66.6 °F 63% 29.95 in 10.0 mi ENE 9.2 mph - N/A   Clear
8:55 PM 78.6 °F - 66.6 °F 66% 29.96 in 10.0 mi ENE 8.1 mph - N/A   Clear
9:55 PM 79.2 °F - 67.3 °F 67% 29.98 in 10.0 mi ENE 12.7 mph - N/A   Scattered Clouds
10:16 PM 78.8 °F - 66.2 °F 65% 29.99 in 10.0 mi East 11.5 mph - N/A   Scattered Clouds
10:55 PM 78.8 °F - 64.2 °F 61% 29.99 in 10.0 mi ENE 9.2 mph - 0.00 in   Partly Cloudy
11:55 PM 78.4 °F - 62.8 °F 58% 29.98 in 10.0 mi East 9.2 mph - N/A   Clear